TimeCDT,TemperatureF,Dew PointF,Humidity,Sea Level PressureIn,VisibilityMPH,Wind Direction,Wind SpeedMPH,Gust SpeedMPH,PrecipitationIn,Events,Conditions,WindDirDegrees,DateUTC
12:53 AM,75.0,57.0,53,30.02,10.0,NNE,3.5,-,N/A,,Clear,30,2013-08-18 05:53:00
1:53 AM,73.0,57.0,57,30.01,10.0,North,4.6,-,N/A,,Clear,10,2013-08-18 06:53:00
2:53 AM,72.0,57.0,59,30.01,10.0,NNE,4.6,-,N/A,,Clear,20,2013-08-18 07:53:00
3:53 AM,71.1,57.0,61,30.00,10.0,NNE,4.6,-,N/A,,Clear,20,2013-08-18 08:53:00
4:53 AM,71.1,57.0,61,29.99,10.0,NE,3.5,-,N/A,,Clear,50,2013-08-18 09:53:00
5:53 AM,71.1,57.0,61,30.00,10.0,Calm,Calm,-,N/A,,Clear,0,2013-08-18 10:53:00
6:53 AM,70.0,57.0,63,30.01,10.0,NNE,3.5,-,N/A,,Clear,30,2013-08-18 11:53:00
7:53 AM,71.1,57.0,61,30.02,10.0,ENE,5.8,-,N/A,,Clear,60,2013-08-18 12:53:00
8:53 AM,77.0,57.9,52,30.05,10.0,ENE,3.5,-,N/A,,Clear,70,2013-08-18 13:53:00
9:53 AM,81.0,57.9,45,30.06,10.0,ESE,6.9,-,N/A,,Clear,110,2013-08-18 14:53:00
10:53 AM,82.9,55.9,39,30.07,10.0,East,3.5,-,N/A,,Clear,90,2013-08-18 15:53:00
11:53 AM,84.9,55.9,37,30.06,10.0,SW,4.6,-,N/A,,Clear,220,2013-08-18 16:53:00
12:53 PM,88.0,55.0,32,30.05,10.0,ESE,6.9,-,N/A,,Clear,110,2013-08-18 17:53:00
1:53 PM,89.1,54.0,30,30.04,10.0,Variable,5.8,-,N/A,,Clear,0,2013-08-18 18:53:00
2:53 PM,91.0,54.0,28,30.02,10.0,NNE,5.8,-,N/A,,Clear,30,2013-08-18 19:53:00
3:53 PM,91.9,53.1,27,30.01,10.0,ESE,10.4,-,N/A,,Mostly Cloudy,110,2013-08-18 20:53:00
4:53 PM,91.0,55.0,29,29.99,10.0,NE,6.9,-,N/A,,Clear,50,2013-08-18 21:53:00
5:53 PM,91.0,55.0,29,29.99,10.0,East,9.2,-,N/A,,Clear,90,2013-08-18 22:53:00
6:53 PM,89.1,55.9,32,29.99,10.0,East,9.2,-,N/A,,Clear,100,2013-08-18 23:53:00
7:53 PM,86.0,57.0,37,29.98,10.0,East,4.6,-,N/A,,Clear,100,2013-08-19 00:53:00
8:53 PM,82.9,57.9,42,29.99,10.0,ENE,3.5,-,N/A,,Clear,60,2013-08-19 01:53:00
9:53 PM,80.1,57.9,47,30.00,10.0,ENE,3.5,-,N/A,,Clear,60,2013-08-19 02:53:00
10:53 PM,79.0,57.0,47,30.01,10.0,NE,4.6,-,N/A,,Clear,50,2013-08-19 03:53:00
11:53 PM,78.1,57.0,48,30.01,10.0,NE,5.8,-,N/A,,Clear,40,2013-08-19 04:53:00